Location: ?????
(38.3715°N, 23.0573°E)
Time: 06:44:04
(UTC+00:00)

Cosmos 2369 Rocket - Pass Details

Date: 03 August 2024
Orbit: 826 x 853 km, 71.0° (Epoch: 12 September)

Event Time Altitude Azimuth Distance (km) Brightness Sun altitude
Rises 18:16:07 0° 186° (S) 3,350 5.1 -8.0°
Reaches altitude 10° 18:18:36 10° 181° (S) 2,423 4.3 -8.4°
Maximum altitude 18:23:56 51° 107° (ESE) 1,042 2.3 -9.3°
Drops below altitude 10° 18:29:21 10° 33° (NNE) 2,452 4.6 -10.2°
Sets 18:31:52 0° 28° (NNE) 3,395 5.4 -10.6°
